TimeCDT,TemperatureF,Dew PointF,Humidity,Sea Level PressureIn,VisibilityMPH,Wind Direction,Wind SpeedMPH,Gust SpeedMPH,PrecipitationIn,Events,Conditions,WindDirDegrees,DateUTC
12:53 AM,71.1,61.0,70,29.65,10.0,South,15.0,24.2,N/A,,Clear,180,2013-10-03 05:53:00
1:53 AM,70.0,61.0,73,29.62,10.0,South,16.1,-,N/A,,Clear,180,2013-10-03 06:53:00
2:53 AM,68.0,60.1,76,29.62,10.0,SSW,17.3,-,N/A,,Clear,200,2013-10-03 07:53:00
3:53 AM,64.9,57.0,75,29.61,10.0,SSW,16.1,-,N/A,,Clear,200,2013-10-03 08:53:00
4:53 AM,60.1,53.1,78,29.62,10.0,SSW,12.7,-,N/A,,Clear,210,2013-10-03 09:53:00
5:53 AM,55.9,39.9,55,29.63,10.0,SSW,11.5,-,N/A,,Clear,210,2013-10-03 10:53:00
6:53 AM,52.0,36.0,54,29.66,10.0,SSW,10.4,-,N/A,,Clear,200,2013-10-03 11:53:00
7:53 AM,50.0,36.0,59,29.68,10.0,SSW,9.2,-,N/A,,Clear,210,2013-10-03 12:53:00
8:53 AM,55.9,37.0,49,29.68,10.0,South,4.6,-,N/A,,Clear,180,2013-10-03 13:53:00
9:53 AM,64.9,37.9,37,29.67,10.0,South,9.2,-,N/A,,Clear,190,2013-10-03 14:53:00
10:53 AM,71.1,39.0,31,29.66,10.0,South,5.8,-,N/A,,Clear,170,2013-10-03 15:53:00
11:53 AM,82.0,37.9,21,29.62,10.0,SSW,13.8,-,N/A,,Clear,200,2013-10-03 16:53:00
12:53 PM,86.0,39.0,19,29.59,10.0,SSW,15.0,-,N/A,,Clear,200,2013-10-03 17:53:00
1:53 PM,89.1,37.9,16,29.55,10.0,SSW,15.0,24.2,N/A,,Clear,200,2013-10-03 18:53:00
2:53 PM,90.0,33.1,13,29.52,10.0,SSW,20.7,32.2,N/A,,Clear,200,2013-10-03 19:53:00
3:53 PM,91.0,30.9,12,29.52,10.0,SSW,19.6,33.4,N/A,,Clear,210,2013-10-03 20:53:00
4:53 PM,91.0,28.9,11,29.50,10.0,SSW,21.9,31.1,N/A,,Clear,200,2013-10-03 21:53:00
5:53 PM,89.1,28.9,12,29.51,10.0,SSW,24.2,32.2,N/A,,Clear,210,2013-10-03 22:53:00
6:53 PM,84.9,28.0,13,29.54,10.0,SSW,21.9,28.8,N/A,,Clear,210,2013-10-03 23:53:00
7:53 PM,75.0,30.0,19,29.57,10.0,SSW,9.2,-,N/A,,Clear,210,2013-10-04 00:53:00
8:53 PM,69.1,30.9,24,29.59,10.0,South,5.8,-,N/A,,Clear,180,2013-10-04 01:53:00
9:53 PM,69.1,35.1,29,29.58,10.0,South,8.1,-,N/A,,Clear,190,2013-10-04 02:53:00
11:53 PM,66.0,35.1,32,29.55,10.0,SSW,11.5,-,N/A,,Clear,200,2013-10-04 04:53:00